星链-36950(STARLINK-36950)

导读

STARLINK-36950(NORAD编号67992)是美国太空探索技术公司(SpaceX)星链(Starlink)项目的低轨互联网通信卫星,归属Starlink V1.0平台。该卫星运行在近地轨道,轨道倾角约70°,近地点高度约570公里,周期约96分钟,属于SpaceX大规模组网的低轨卫星星座的一部分。 作为星链项目的组成卫星,它承担全球互联网覆盖任务,为偏远地区及特殊场景提供高速低延迟网络服务,目前它也在SpaceX 2026年轨道调整计划范围内,后续轨道高度将逐步降低以提升太空安全性,减少空间碎片风险。

基本信息
目录编号:
67992
目录名称:
STARLINK-36950
国际标识:
2026-039G
轨道中心:
EARTH
卫星名称:
星链-36950
卫星全名:
星链-36950(STARLINK-36950)
卫星状态:
在轨 (已飞行196 天)
发射日期:
2026-02-27 UTC
国别 :
美国 (US)
星等 :
--
该卫星已列入 空间交会检测服务 Space Conjunction Data Service (SCDS) ,当前飞行风险评估等级: 高风险
轨道信息
数据来源 国际轨道数据 AOE轨道数据
星历时间 2026-09-11T20:38:24+0800
7小时前
查看轨道信息
2026-09-05T11:00:00+0800
6天前
查看轨道信息
半长轴 6861.138km 6861.173km
偏心率 0.000172 0.0001371
轨道倾角 43.000° 43.002°
近地点辐角 242.321° 265.093°
升交点赤经 79.532° 115.690°
平近点角 117.747° 129.160°
近地点 481.82km 482.095km
远地点 484.182km 483.977km
周期 94.266分钟 94.266分钟
每日圈数 15.275963 15.275846
详细信息
固有亮度:
5
最大亮度:
2.5
卫星平台:
Starlink V1.0
覆盖范围:
全球
运营商:
太空探索技术公司
运营商所在国:
美国
制造商(研发单位):
太空探索技术公司
制造商所在国:
美国
使用方式:
暂无
卫星简介
Starlink 计划是 SpaceX 推出的全球卫星互联网项目,通过发射低轨道卫星,为全球尤其是偏远地区提供高速、低延迟的互联网服务。自 2019 年起,Starlink 已部署数千颗卫星,旨在缩小全球数字鸿沟,推动互联网普及。该项目还为军事、航空等行业提供通信支持,带来广泛经济效益。
2D轨道图
3D轨道图
轨道高度分析图
轨道倾角分析图
轨道综合分析图
查看轨道综合分析图
交会数据列表
事件ID 空间交会对象 最接近时刻(TCA) 交会距离 交会风险概率(CRP) 交会风险指数(CRI) 操作
CDM_260913-093905-797706-799221
2026-09-13T
09:39:29+0000
0.647 km
远距离
5.299102E-5 中风险 0.69
CDM_260914-073205-908106-799221
2026-09-14T
07:32:52+0000
0.723 km
远距离
5.073948E-5 中风险 0.69
CDM_260913-143306-340506-799221
2026-09-13T
14:33:32+0000
0.769 km
远距离
3.090215E-5 中风险 0.65
CDM_260914-004506-340506-799221
2026-09-14T
00:45:31+0000
0.792 km
远距离
2.804297E-5 中风险 0.64
CDM_260913-195105-797706-799221
2026-09-13T
19:51:29+0000
0.827 km
远距离
2.437607E-5 中风险 0.63
CDM_260913-160706-340506-799221
2026-09-13T
16:07:41+0000
0.949 km
远距离
1.524106E-5 中风险 0.59
CDM_260913-212505-797706-799221
2026-09-13T
21:25:39+0000
1.159 km
极远距离
7.705559E-6 低风险 0.53
CDM_260913-111305-797706-799221
2026-09-13T
11:13:38+0000
1.374 km
极远距离
4.338609E-6 低风险 0.48
CDM_260914-021906-340506-799221
2026-09-14T
02:19:40+0000
1.496 km
极远距离
3.295374E-6 低风险 0.45
CDM_260914-055805-908106-799221
2026-09-14T
05:58:43+0000
1.930 km
极远距离
2.110284E-6 低风险 0.41
与全量物体交会距离演化趋势
与全量物体交会风险概率演化趋势